Year,Month,Day,Hour,Minute,Value (Times are PST for temperature in C)
2021,12,01,00,00,10.60
2021,12,01,00,01,10.60
2021,12,01,00,02,10.60
2021,12,01,00,03,10.60
2021,12,01,00,04,10.60
2021,12,01,00,05,10.50
2021,12,01,00,06,10.50
2021,12,01,00,07,10.50
2021,12,01,00,08,10.50
2021,12,01,00,09,10.50
2021,12,01,00,10,10.50
2021,12,01,00,11,10.50
2021,12,01,00,12,10.50
2021,12,01,00,13,10.50
2021,12,01,00,14,10.40
2021,12,01,00,15,10.40
2021,12,01,00,16,10.40
2021,12,01,00,17,10.40
2021,12,01,00,18,10.40
2021,12,01,00,19,10.40
2021,12,01,00,20,10.40
2021,12,01,00,21,10.40
2021,12,01,00,22,10.30
2021,12,01,00,23,10.30
2021,12,01,00,24,10.30
2021,12,01,00,25,10.20
2021,12,01,00,26,10.20
2021,12,01,00,27,10.10
2021,12,01,00,28,10.10
2021,12,01,00,29,10.10
2021,12,01,00,30,10.10
2021,12,01,00,31,10.00
2021,12,01,00,32,10.00
2021,12,01,00,33,10.00
2021,12,01,00,34,9.90
2021,12,01,00,35,9.90
2021,12,01,00,36,9.90
2021,12,01,00,37,9.80
2021,12,01,00,38,9.80
2021,12,01,00,39,9.80
2021,12,01,00,40,9.80
2021,12,01,00,41,9.80
2021,12,01,00,42,9.80
2021,12,01,00,43,9.70
2021,12,01,00,44,9.70
2021,12,01,00,45,9.70
2021,12,01,00,46,9.70
2021,12,01,00,47,9.70
2021,12,01,00,48,9.70
2021,12,01,00,49,9.70
2021,12,01,00,50,9.70
2021,12,01,00,51,9.60
2021,12,01,00,52,9.60
2021,12,01,00,53,9.60
2021,12,01,00,54,9.60
2021,12,01,00,55,9.60
2021,12,01,00,56,9.60
2021,12,01,00,57,9.60
2021,12,01,00,58,9.60
2021,12,01,00,59,9.50
2021,12,01,01,00,9.50
2021,12,01,01,01,9.50
2021,12,01,01,02,9.50
2021,12,01,01,03,9.50
2021,12,01,01,04,9.50
2021,12,01,01,05,9.50
2021,12,01,01,06,9.50
2021,12,01,01,07,9.50
2021,12,01,01,08,9.40
2021,12,01,01,09,9.40
2021,12,01,01,10,9.40
2021,12,01,01,11,9.40
2021,12,01,01,12,9.40
2021,12,01,01,13,9.40
2021,12,01,01,14,9.40
2021,12,01,01,15,9.40
2021,12,01,01,16,9.40
2021,12,01,01,17,9.40
2021,12,01,01,18,9.30
2021,12,01,01,19,9.30
2021,12,01,01,20,9.30
2021,12,01,01,21,9.30
2021,12,01,01,22,9.30
2021,12,01,01,23,9.30
2021,12,01,01,24,9.30
2021,12,01,01,25,9.30
2021,12,01,01,26,9.20
2021,12,01,01,27,9.20
2021,12,01,01,28,9.20
2021,12,01,01,29,9.20
2021,12,01,01,30,9.20
2021,12,01,01,31,9.20
2021,12,01,01,32,9.20
2021,12,01,01,33,9.20
2021,12,01,01,34,9.20
2021,12,01,01,35,9.20
2021,12,01,01,36,9.20
2021,12,01,01,37,9.20
2021,12,01,01,38,9.10
2021,12,01,01,39,9.10
2021,12,01,01,40,9.10
2021,12,01,01,41,9.10
2021,12,01,01,42,9.10
2021,12,01,01,43,9.10
2021,12,01,01,44,9.10
2021,12,01,01,45,9.10
2021,12,01,01,46,9.10
2021,12,01,01,47,9.10
2021,12,01,01,48,9.10
2021,12,01,01,49,9.10
2021,12,01,01,50,9.10
2021,12,01,01,51,9.10
2021,12,01,01,52,9.10
2021,12,01,01,53,9.10
2021,12,01,01,54,9.10
2021,12,01,01,55,9.20
2021,12,01,01,56,9.20
2021,12,01,01,57,9.20
2021,12,01,01,58,9.20
2021,12,01,01,59,9.20
2021,12,01,02,00,9.20
2021,12,01,02,01,9.20
2021,12,01,02,02,9.20
2021,12,01,02,03,9.20
2021,12,01,02,04,9.20
2021,12,01,02,05,9.20
2021,12,01,02,06,9.30
2021,12,01,02,07,9.30
2021,12,01,02,08,9.40
2021,12,01,02,09,9.40
2021,12,01,02,10,9.50
2021,12,01,02,11,9.50
2021,12,01,02,12,9.60
2021,12,01,02,13,9.60
2021,12,01,02,14,9.60
2021,12,01,02,15,9.70
2021,12,01,02,16,9.70
2021,12,01,02,17,9.70
2021,12,01,02,18,9.70
2021,12,01,02,19,9.70
2021,12,01,02,20,9.70
2021,12,01,02,21,9.80
2021,12,01,02,22,9.80
2021,12,01,02,23,9.80
2021,12,01,02,24,9.80
2021,12,01,02,25,9.80
2021,12,01,02,26,9.80
2021,12,01,02,27,9.90
2021,12,01,02,28,9.90
2021,12,01,02,29,9.90
2021,12,01,02,30,9.90
2021,12,01,02,31,9.90
2021,12,01,02,32,9.90
2021,12,01,02,33,9.90
2021,12,01,02,34,9.90
2021,12,01,02,35,10.00
2021,12,01,02,36,10.00
2021,12,01,02,37,10.10
2021,12,01,02,38,10.10
2021,12,01,02,39,10.10
2021,12,01,02,40,10.20
2021,12,01,02,41,10.30
2021,12,01,02,42,10.30
2021,12,01,02,43,10.40
2021,12,01,02,44,10.40
2021,12,01,02,45,10.40
2021,12,01,02,46,10.40
2021,12,01,02,47,10.40
2021,12,01,02,48,10.40
2021,12,01,02,49,10.40
2021,12,01,02,50,10.40
2021,12,01,02,51,10.30
2021,12,01,02,52,10.30
2021,12,01,02,53,10.30
2021,12,01,02,54,10.30
2021,12,01,02,55,10.30
2021,12,01,02,56,10.30
2021,12,01,02,57,10.20
2021,12,01,02,58,10.20
2021,12,01,02,59,10.20
2021,12,01,03,00,10.20
2021,12,01,03,01,10.20
2021,12,01,03,02,10.10
2021,12,01,03,03,10.10
2021,12,01,03,04,10.10
2021,12,01,03,05,10.10
2021,12,01,03,06,10.10
2021,12,01,03,07,10.10
2021,12,01,03,08,10.10
2021,12,01,03,09,10.10
2021,12,01,03,10,10.10
2021,12,01,03,11,10.10
2021,12,01,03,12,10.10
2021,12,01,03,13,10.20
2021,12,01,03,14,10.20
2021,12,01,03,15,10.20
2021,12,01,03,16,10.20
2021,12,01,03,17,10.20
2021,12,01,03,18,10.20
2021,12,01,03,19,10.20
2021,12,01,03,20,10.20
2021,12,01,03,21,10.30
2021,12,01,03,22,10.30
2021,12,01,03,23,10.30
2021,12,01,03,24,10.30
2021,12,01,03,25,10.30
2021,12,01,03,26,10.30
2021,12,01,03,27,10.30
2021,12,01,03,28,10.30
2021,12,01,03,29,10.20
2021,12,01,03,30,10.20
2021,12,01,03,31,10.20
2021,12,01,03,32,10.30
2021,12,01,03,33,10.30
2021,12,01,03,34,10.40
2021,12,01,03,35,10.40
2021,12,01,03,36,10.40
2021,12,01,03,37,10.40
2021,12,01,03,38,10.40
2021,12,01,03,39,10.40
2021,12,01,03,40,10.40
2021,12,01,03,41,10.40
2021,12,01,03,42,10.40
2021,12,01,03,43,10.40
2021,12,01,03,44,10.40
2021,12,01,03,45,10.40
2021,12,01,03,46,10.50
2021,12,01,03,47,10.60
2021,12,01,03,48,10.70
2021,12,01,03,49,10.80
2021,12,01,03,50,10.80
2021,12,01,03,51,10.80
2021,12,01,03,52,10.70
2021,12,01,03,53,10.60
2021,12,01,03,54,10.60
2021,12,01,03,55,10.60
2021,12,01,03,56,10.60
2021,12,01,03,57,10.60
2021,12,01,03,58,10.60
2021,12,01,03,59,10.60
2021,12,01,04,00,10.60
2021,12,01,04,01,10.60
2021,12,01,04,02,10.70
2021,12,01,04,03,10.80
2021,12,01,04,04,11.00
2021,12,01,04,05,11.10
2021,12,01,04,06,11.20
2021,12,01,04,07,11.20
2021,12,01,04,08,11.20
2021,12,01,04,09,11.30
2021,12,01,04,10,11.30
2021,12,01,04,11,11.40
2021,12,01,04,12,11.40
2021,12,01,04,13,11.50
2021,12,01,04,14,11.60
2021,12,01,04,15,11.80
2021,12,01,04,16,12.00
2021,12,01,04,17,12.10
2021,12,01,04,18,12.20
2021,12,01,04,19,12.20
2021,12,01,04,20,12.30
2021,12,01,04,21,12.30
2021,12,01,04,22,12.30
2021,12,01,04,23,12.40
2021,12,01,04,24,12.50
2021,12,01,04,25,12.50
2021,12,01,04,26,12.60
2021,12,01,04,27,12.90
2021,12,01,04,28,13.10
2021,12,01,04,29,13.30
2021,12,01,04,30,13.50
2021,12,01,04,31,13.60
2021,12,01,04,32,13.60
2021,12,01,04,33,13.60
2021,12,01,04,34,13.60
2021,12,01,04,35,13.70
2021,12,01,04,36,13.90
2021,12,01,04,37,14.00
2021,12,01,04,38,14.10
2021,12,01,04,39,14.10
2021,12,01,04,40,14.20
2021,12,01,04,41,14.20
2021,12,01,04,42,14.30
2021,12,01,04,43,14.40
2021,12,01,04,44,14.40
2021,12,01,04,45,14.40
2021,12,01,04,46,14.40
2021,12,01,04,47,14.50
2021,12,01,04,48,14.60
2021,12,01,04,49,14.60
2021,12,01,04,50,14.60
2021,12,01,04,51,14.60
2021,12,01,04,52,14.50
2021,12,01,04,53,14.50
2021,12,01,04,54,14.40
2021,12,01,04,55,14.40
2021,12,01,04,56,14.40
2021,12,01,04,57,14.40
2021,12,01,04,58,14.40
2021,12,01,04,59,14.40
2021,12,01,05,00,14.50
2021,12,01,05,01,14.60
2021,12,01,05,02,14.70
2021,12,01,05,03,14.70
2021,12,01,05,04,14.60
2021,12,01,05,05,14.60
2021,12,01,05,06,14.50
2021,12,01,05,07,14.60
2021,12,01,05,08,14.60
2021,12,01,05,09,14.70
2021,12,01,05,10,14.80
2021,12,01,05,11,14.80
2021,12,01,05,12,14.80
2021,12,01,05,13,14.80
2021,12,01,05,14,14.80
2021,12,01,05,15,14.80
2021,12,01,05,16,14.80
2021,12,01,05,17,14.70
2021,12,01,05,18,14.00
2021,12,01,05,19,14.00
2021,12,01,05,20,14.00
2021,12,01,05,21,14.00
2021,12,01,05,22,14.00
2021,12,01,05,23,14.00
2021,12,01,05,24,14.00
2021,12,01,05,25,14.00
2021,12,01,05,26,14.00
2021,12,01,05,27,14.00
2021,12,01,05,28,14.00
2021,12,01,05,29,14.00
2021,12,01,09,09,13.40
2021,12,01,09,10,13.40
2021,12,01,09,11,13.40
2021,12,01,09,12,13.30
2021,12,01,09,13,13.30
2021,12,01,09,14,13.30
2021,12,01,09,15,13.30
2021,12,01,09,16,13.30
2021,12,01,09,17,13.30
2021,12,01,09,18,13.30
2021,12,01,09,19,13.30
2021,12,01,09,20,13.40
2021,12,01,09,21,13.40
2021,12,01,09,22,13.40
2021,12,01,09,23,13.50
2021,12,01,09,24,13.50
2021,12,01,09,25,13.50
2021,12,01,09,26,13.50
2021,12,01,09,27,13.60
2021,12,01,09,28,13.60
2021,12,01,09,29,13.60
2021,12,01,09,30,13.60
2021,12,01,09,31,13.60
2021,12,01,09,32,13.60
2021,12,01,09,33,13.60
2021,12,01,09,34,13.60
2021,12,01,09,35,13.70
2021,12,01,09,36,13.70
2021,12,01,09,37,13.70
2021,12,01,09,38,13.70
2021,12,01,09,39,13.70
2021,12,01,09,40,13.60
2021,12,01,09,41,13.60
2021,12,01,09,42,13.60
2021,12,01,09,43,13.60
2021,12,01,09,44,13.60
2021,12,01,09,45,13.50
2021,12,01,09,46,13.50
2021,12,01,09,47,13.50
2021,12,01,09,48,13.50
2021,12,01,09,49,13.50
2021,12,01,09,50,13.40
2021,12,01,09,51,13.40
2021,12,01,09,52,13.40
2021,12,01,09,53,13.40
2021,12,01,09,54,13.50
2021,12,01,09,55,13.50
2021,12,01,09,56,13.50
2021,12,01,09,57,13.50
2021,12,01,09,58,13.50
2021,12,01,09,59,13.50
2021,12,01,10,00,13.50
2021,12,01,10,01,13.50
2021,12,01,10,02,13.60
2021,12,01,10,03,13.70
2021,12,01,10,04,13.70
2021,12,01,10,05,13.60
2021,12,01,10,06,13.60
2021,12,01,10,07,13.60
2021,12,01,10,08,13.60
2021,12,01,10,09,13.50
2021,12,01,10,10,13.50
2021,12,01,10,11,13.50
2021,12,01,10,12,13.50
2021,12,01,10,13,13.60
2021,12,01,10,14,13.50
2021,12,01,10,15,13.50
2021,12,01,10,16,13.50
2021,12,01,10,17,13.60
2021,12,01,10,18,13.50
2021,12,01,10,19,13.50
2021,12,01,10,20,13.60
2021,12,01,10,21,13.60
2021,12,01,10,22,13.60
2021,12,01,10,23,13.60
2021,12,01,10,24,13.60
2021,12,01,10,25,13.60
2021,12,01,10,26,13.60
2021,12,01,10,27,13.60
2021,12,01,10,28,13.60
2021,12,01,10,29,13.60
2021,12,01,10,30,13.60
2021,12,01,10,31,13.70
2021,12,01,10,32,13.70
2021,12,01,10,33,13.70
2021,12,01,10,34,13.70
2021,12,01,10,35,13.70
2021,12,01,10,36,13.70
2021,12,01,10,37,13.70
2021,12,01,10,38,13.70
2021,12,01,10,39,13.70
2021,12,01,10,40,13.70
2021,12,01,10,41,13.70
2021,12,01,10,42,13.70
2021,12,01,10,43,13.70
2021,12,01,10,44,13.70
2021,12,01,10,45,13.70
2021,12,01,10,46,13.70
2021,12,01,10,47,13.70
2021,12,01,10,48,13.70
2021,12,01,10,49,13.70
2021,12,01,10,50,13.70
2021,12,01,10,51,13.70
2021,12,01,10,52,13.80
2021,12,01,10,53,13.80
2021,12,01,10,54,13.80
2021,12,01,10,55,13.80
2021,12,01,10,56,13.80
2021,12,01,10,57,13.80
2021,12,01,10,58,13.80
2021,12,01,10,59,13.80
2021,12,01,11,00,13.80
2021,12,01,11,01,13.80
2021,12,01,11,02,13.80
2021,12,01,11,03,13.80
2021,12,01,11,04,13.80
2021,12,01,11,05,13.80
2021,12,01,11,06,13.80
2021,12,01,11,07,13.80
2021,12,01,11,08,13.80
2021,12,01,11,09,13.80
2021,12,01,11,10,13.80
2021,12,01,11,11,13.80
2021,12,01,11,12,13.80
2021,12,01,11,13,13.80
2021,12,01,11,14,13.80
2021,12,01,11,15,13.80
2021,12,01,11,16,13.80
2021,12,01,11,17,13.80
2021,12,01,11,18,13.80
2021,12,01,11,19,13.80
2021,12,01,11,20,13.80
2021,12,01,11,21,13.80
2021,12,01,11,22,13.80
2021,12,01,11,23,13.80
2021,12,01,11,24,13.80
2021,12,01,11,25,13.90
2021,12,01,11,26,13.90
2021,12,01,11,27,13.90
2021,12,01,11,28,13.90
2021,12,01,11,29,13.90
2021,12,01,11,30,13.90
2021,12,01,11,31,14.00
2021,12,01,11,32,14.00
2021,12,01,11,33,14.00
2021,12,01,11,34,14.00
2021,12,01,11,35,14.10
2021,12,01,11,36,14.10
2021,12,01,11,37,14.10
2021,12,01,11,38,14.10
2021,12,01,11,39,14.10
2021,12,01,11,40,14.10
2021,12,01,11,41,14.00
2021,12,01,11,42,14.00
2021,12,01,11,43,14.00
2021,12,01,11,44,14.00
2021,12,01,11,45,14.00
2021,12,01,11,46,14.00
2021,12,01,11,47,14.00
2021,12,01,11,48,14.00
2021,12,01,11,49,14.00
2021,12,01,11,50,13.90
2021,12,01,11,51,13.90
2021,12,01,11,52,13.90
2021,12,01,11,53,13.90
2021,12,01,11,54,13.90
2021,12,01,11,55,13.80
2021,12,01,11,56,13.80
2021,12,01,11,57,13.80
2021,12,01,11,58,13.80
2021,12,01,11,59,13.70
2021,12,01,12,00,13.70
2021,12,01,12,01,13.70
2021,12,01,12,02,13.70
2021,12,01,12,03,13.70
2021,12,01,12,04,13.70
2021,12,01,12,05,13.70
2021,12,01,12,06,13.70
2021,12,01,12,07,13.70
2021,12,01,12,08,13.70
2021,12,01,12,09,13.80
2021,12,01,12,10,13.80
2021,12,01,12,11,13.80
2021,12,01,12,12,13.80
2021,12,01,12,13,13.80
2021,12,01,12,14,13.80
2021,12,01,12,15,13.80
2021,12,01,12,16,13.80
2021,12,01,12,17,13.80
2021,12,01,12,18,13.80
2021,12,01,12,19,13.80
2021,12,01,12,20,13.80
2021,12,01,12,21,13.80
2021,12,01,12,22,13.80
2021,12,01,12,23,13.80
2021,12,01,12,24,13.80
2021,12,01,12,25,13.80
2021,12,01,12,26,13.80
2021,12,01,12,27,13.80
2021,12,01,12,28,13.80
2021,12,01,12,29,13.80
2021,12,01,12,30,13.80
2021,12,01,12,31,13.80
2021,12,01,12,32,13.80
2021,12,01,12,33,13.80
2021,12,01,12,34,13.80
2021,12,01,12,35,13.80
2021,12,01,12,36,13.80
2021,12,01,12,37,13.80
2021,12,01,12,38,13.80
2021,12,01,12,39,13.80
2021,12,01,12,40,13.80
2021,12,01,12,41,13.80
2021,12,01,12,42,13.80
2021,12,01,12,43,13.80
2021,12,01,12,44,13.80
2021,12,01,12,45,13.80
2021,12,01,12,46,13.80
2021,12,01,12,47,13.80
2021,12,01,12,48,13.70
2021,12,01,12,49,13.70
2021,12,01,12,50,13.60
2021,12,01,12,51,13.50
2021,12,01,12,52,13.40
2021,12,01,12,53,13.40
2021,12,01,12,54,13.30
2021,12,01,12,55,13.20
2021,12,01,12,56,13.20
2021,12,01,12,57,13.10
2021,12,01,12,58,13.10
2021,12,01,12,59,13.00
2021,12,01,13,00,12.90
2021,12,01,13,01,12.90
2021,12,01,13,02,12.80
2021,12,01,13,03,12.80
2021,12,01,13,04,12.80
2021,12,01,13,05,12.80
2021,12,01,13,06,12.70
2021,12,01,13,07,12.70
2021,12,01,13,08,12.70
2021,12,01,13,09,12.70
2021,12,01,13,10,12.60
2021,12,01,13,11,12.60
2021,12,01,13,12,12.60
2021,12,01,13,13,12.60
2021,12,01,13,14,12.60
2021,12,01,13,15,12.60
2021,12,01,13,16,12.60
2021,12,01,13,17,12.60
2021,12,01,13,18,12.60
2021,12,01,13,19,12.60
2021,12,01,13,20,12.60
2021,12,01,13,21,12.60
2021,12,01,13,22,12.60
2021,12,01,13,23,12.60
2021,12,01,13,24,12.60
2021,12,01,13,25,12.60
2021,12,01,13,26,12.60
2021,12,01,13,27,12.60
2021,12,01,13,28,12.70
2021,12,01,13,29,12.70
2021,12,01,13,30,12.70
2021,12,01,13,31,12.80
2021,12,01,13,32,12.80
2021,12,01,13,33,12.80
2021,12,01,13,34,12.80
2021,12,01,13,35,12.80
2021,12,01,13,36,12.90
2021,12,01,13,37,12.90
2021,12,01,13,38,12.90
2021,12,01,13,39,12.90
2021,12,01,13,40,13.00
2021,12,01,13,41,13.00
2021,12,01,13,42,13.10
2021,12,01,13,43,13.10
2021,12,01,13,44,13.10
2021,12,01,13,45,13.20
2021,12,01,13,46,13.20
2021,12,01,13,47,13.20
2021,12,01,13,48,13.30
2021,12,01,13,49,13.30
2021,12,01,13,50,13.30
2021,12,01,13,51,13.30
2021,12,01,13,52,13.30
2021,12,01,13,53,13.30
2021,12,01,13,54,13.30
2021,12,01,13,55,13.30
2021,12,01,13,56,13.30
2021,12,01,13,57,13.30
2021,12,01,13,58,13.30
2021,12,01,13,59,13.30
2021,12,01,14,00,13.30
2021,12,01,14,01,13.30
2021,12,01,14,02,13.20
2021,12,01,14,03,13.20
2021,12,01,14,04,13.20
2021,12,01,14,05,13.20
2021,12,01,14,06,13.20
2021,12,01,14,07,13.20
2021,12,01,14,08,13.10
2021,12,01,14,09,13.10
2021,12,01,14,10,13.10
2021,12,01,14,11,13.10
2021,12,01,14,12,13.10
2021,12,01,14,13,13.00
2021,12,01,14,14,13.00
2021,12,01,14,15,13.00
2021,12,01,14,16,13.00
2021,12,01,14,17,12.90
2021,12,01,14,18,12.90
2021,12,01,14,19,12.90
2021,12,01,14,20,12.90
2021,12,01,14,21,12.90
2021,12,01,14,22,12.80
2021,12,01,14,23,12.80
2021,12,01,14,24,12.70
2021,12,01,14,25,12.70
2021,12,01,14,26,12.70
2021,12,01,14,27,12.70
2021,12,01,14,28,12.70
2021,12,01,14,29,12.70
2021,12,01,14,30,12.70
2021,12,01,14,31,12.70
2021,12,01,14,32,12.70
2021,12,01,14,33,12.70
2021,12,01,14,34,12.70
2021,12,01,14,35,12.70
2021,12,01,14,36,12.60
2021,12,01,14,37,12.60
2021,12,01,14,38,12.60
2021,12,01,14,39,12.60
2021,12,01,14,40,12.60
2021,12,01,14,41,12.60
2021,12,01,14,42,12.50
2021,12,01,14,43,12.50
2021,12,01,14,44,12.50
2021,12,01,14,45,12.50
2021,12,01,14,46,12.40
2021,12,01,14,47,12.40
2021,12,01,14,48,12.40
2021,12,01,14,49,12.40
2021,12,01,14,50,12.40
2021,12,01,14,51,12.50
2021,12,01,14,52,12.50
2021,12,01,14,53,12.50
2021,12,01,14,54,12.50
2021,12,01,14,55,12.50
2021,12,01,14,56,12.50
2021,12,01,14,57,12.50
2021,12,01,14,58,12.50
2021,12,01,14,59,12.50
2021,12,01,15,00,12.50
2021,12,01,15,01,12.50
2021,12,01,15,02,12.50
2021,12,01,15,03,12.40
2021,12,01,15,04,12.40
2021,12,01,15,05,12.40
2021,12,01,15,06,12.40
2021,12,01,15,07,12.40
2021,12,01,15,08,12.30
2021,12,01,15,09,12.30
2021,12,01,15,10,12.30
2021,12,01,15,11,12.30
2021,12,01,15,12,12.30
2021,12,01,15,13,12.30
2021,12,01,15,14,12.30
2021,12,01,15,15,12.30
2021,12,01,15,16,12.30
2021,12,01,15,17,12.30
2021,12,01,15,18,12.30
2021,12,01,15,19,12.30
2021,12,01,15,20,12.40
2021,12,01,15,21,12.40
2021,12,01,15,22,12.40
2021,12,01,15,23,12.40
2021,12,01,15,24,12.40
2021,12,01,15,25,12.30
2021,12,01,15,26,12.30
2021,12,01,15,27,12.30
2021,12,01,15,28,12.30
2021,12,01,15,29,12.30
2021,12,01,15,30,12.30
2021,12,01,15,31,12.30
2021,12,01,15,32,12.30
2021,12,01,15,33,12.20
2021,12,01,15,34,12.20
2021,12,01,15,35,12.20
2021,12,01,15,36,12.20
2021,12,01,15,37,12.20
2021,12,01,15,38,12.20
2021,12,01,15,39,12.20
2021,12,01,15,40,12.20
2021,12,01,15,41,12.20
2021,12,01,15,42,12.20
2021,12,01,15,43,12.10
2021,12,01,15,44,12.10
2021,12,01,15,45,12.10
2021,12,01,15,46,12.00
2021,12,01,15,47,12.00
2021,12,01,15,48,11.90
2021,12,01,15,49,11.90
2021,12,01,15,50,11.90
2021,12,01,15,51,11.80
2021,12,01,15,52,11.80
2021,12,01,15,53,11.70
2021,12,01,15,54,11.70
2021,12,01,15,55,11.70
2021,12,01,15,56,11.60
2021,12,01,15,57,11.60
2021,12,01,15,58,11.50
2021,12,01,15,59,11.40
2021,12,01,16,00,11.40
2021,12,01,16,01,11.30
2021,12,01,16,02,11.30
2021,12,01,16,03,11.20
2021,12,01,16,04,11.20
2021,12,01,16,05,11.10
2021,12,01,16,06,11.10
2021,12,01,16,07,11.00
2021,12,01,16,08,11.00
2021,12,01,16,09,10.90
2021,12,01,16,10,10.90
2021,12,01,16,11,10.80
2021,12,01,16,12,10.80
2021,12,01,16,13,10.80
2021,12,01,16,14,10.70
2021,12,01,16,15,10.70
2021,12,01,16,16,10.70
2021,12,01,16,17,10.70
2021,12,01,16,18,10.70
2021,12,01,16,19,10.60
2021,12,01,16,20,10.60
2021,12,01,16,21,10.50
2021,12,01,16,22,10.50
2021,12,01,16,23,10.50
2021,12,01,16,24,10.50
2021,12,01,16,25,10.40
2021,12,01,16,26,10.40
2021,12,01,16,27,10.40
2021,12,01,16,28,10.30
2021,12,01,16,29,10.30
2021,12,01,16,30,10.30
2021,12,01,16,31,10.30
2021,12,01,16,32,10.30
2021,12,01,16,33,10.20
2021,12,01,16,34,10.20
2021,12,01,16,35,10.20
2021,12,01,16,36,10.20
2021,12,01,16,37,10.20
2021,12,01,16,38,10.10
2021,12,01,16,39,10.10
2021,12,01,16,40,10.10
2021,12,01,16,41,10.10
2021,12,01,16,42,10.10
2021,12,01,16,43,10.10
2021,12,01,16,44,10.10
2021,12,01,16,45,10.00
2021,12,01,16,46,10.00
2021,12,01,16,47,10.00
2021,12,01,16,48,9.90
2021,12,01,16,49,9.90
2021,12,01,16,50,9.90
2021,12,01,16,51,9.90
2021,12,01,16,52,9.90
2021,12,01,16,53,9.90
2021,12,01,16,54,9.90
2021,12,01,16,55,9.90
2021,12,01,16,56,9.80
2021,12,01,16,57,9.80
2021,12,01,16,58,9.80
2021,12,01,16,59,9.80
2021,12,01,17,00,9.80
2021,12,01,17,01,9.80
2021,12,01,17,02,9.80
2021,12,01,17,03,9.70
2021,12,01,17,04,9.70
2021,12,01,17,05,9.70
2021,12,01,17,06,9.60
2021,12,01,17,07,9.60
2021,12,01,17,08,9.60
2021,12,01,17,09,9.60
2021,12,01,17,10,9.60
2021,12,01,17,11,9.60
2021,12,01,17,12,9.60
2021,12,01,17,13,9.70
2021,12,01,17,14,9.80
2021,12,01,17,15,9.90
2021,12,01,17,16,9.90
2021,12,01,17,17,10.00
2021,12,01,17,18,10.00
2021,12,01,17,19,10.10
2021,12,01,17,20,10.10
2021,12,01,17,21,10.10
2021,12,01,17,22,10.10
2021,12,01,17,23,10.00
2021,12,01,17,24,10.00
2021,12,01,17,25,10.00
2021,12,01,17,26,10.00
2021,12,01,17,27,10.00
2021,12,01,17,28,10.10
2021,12,01,17,29,10.10
2021,12,01,17,30,10.00
2021,12,01,17,31,10.00
2021,12,01,17,32,10.10
2021,12,01,17,33,10.10
2021,12,01,17,34,10.10
2021,12,01,17,35,10.10
2021,12,01,17,36,10.10
2021,12,01,17,37,10.10
2021,12,01,17,38,10.10
2021,12,01,17,39,10.20
2021,12,01,17,40,10.20
2021,12,01,17,41,10.20
2021,12,01,17,42,10.20
2021,12,01,17,43,10.20
2021,12,01,17,44,10.20
2021,12,01,17,45,10.10
2021,12,01,17,46,10.10
2021,12,01,17,47,10.10
2021,12,01,17,48,10.10
2021,12,01,17,49,10.10
2021,12,01,17,50,10.00
2021,12,01,17,51,10.00
2021,12,01,17,52,9.90
2021,12,01,17,53,9.90
2021,12,01,17,54,9.90
2021,12,01,17,55,9.90
2021,12,01,17,56,9.90
2021,12,01,17,57,9.90
2021,12,01,17,58,9.90
2021,12,01,17,59,9.90
2021,12,01,18,00,10.00
2021,12,01,18,01,10.00
2021,12,01,18,02,10.00
2021,12,01,18,03,10.00
2021,12,01,18,04,10.00
2021,12,01,18,05,9.90
2021,12,01,18,06,9.90
2021,12,01,18,07,9.90
2021,12,01,18,08,9.80
2021,12,01,18,09,9.80
2021,12,01,18,10,9.80
2021,12,01,18,11,9.80
2021,12,01,18,12,9.80
2021,12,01,18,13,9.80
2021,12,01,18,14,9.80
2021,12,01,18,15,9.80
2021,12,01,18,16,9.80
2021,12,01,18,17,9.80
2021,12,01,18,18,9.80
2021,12,01,18,19,9.80
2021,12,01,18,20,9.80
2021,12,01,18,21,9.80
2021,12,01,18,22,9.80
2021,12,01,18,23,9.80
2021,12,01,18,24,9.80
2021,12,01,18,25,9.90
2021,12,01,18,26,9.90
2021,12,01,18,27,9.80
2021,12,01,18,28,9.80
2021,12,01,18,29,9.80
2021,12,01,18,30,9.90
2021,12,01,18,31,9.80
2021,12,01,18,32,9.80
2021,12,01,18,33,9.70
2021,12,01,18,34,9.60
2021,12,01,18,35,9.60
2021,12,01,18,36,9.60
2021,12,01,18,37,9.50
2021,12,01,18,38,9.50
2021,12,01,18,39,9.40
2021,12,01,18,40,9.40
2021,12,01,18,41,9.40
2021,12,01,18,42,9.30
2021,12,01,18,43,9.30
2021,12,01,18,44,9.30
2021,12,01,18,45,9.30
2021,12,01,18,46,9.40
2021,12,01,18,47,9.50
2021,12,01,18,48,9.60
2021,12,01,18,49,9.70
2021,12,01,18,50,9.70
2021,12,01,18,51,9.70
2021,12,01,18,52,9.70
2021,12,01,18,53,9.70
2021,12,01,18,54,9.60
2021,12,01,18,55,9.60
2021,12,01,18,56,9.50
2021,12,01,18,57,9.40
2021,12,01,18,58,9.40
2021,12,01,18,59,9.30
2021,12,01,19,00,9.30
2021,12,01,19,01,9.20
2021,12,01,19,02,9.20
2021,12,01,19,03,9.20
2021,12,01,19,04,9.20
2021,12,01,19,05,9.30
2021,12,01,19,06,9.30
2021,12,01,19,07,9.30
2021,12,01,19,08,9.30
2021,12,01,19,09,9.30
2021,12,01,19,10,9.40
2021,12,01,19,11,9.40
2021,12,01,19,12,9.40
2021,12,01,19,13,9.40
2021,12,01,19,14,9.40
2021,12,01,19,15,9.40
2021,12,01,19,16,9.30
2021,12,01,19,17,9.30
2021,12,01,19,18,9.20
2021,12,01,19,19,9.20
2021,12,01,19,20,9.10
2021,12,01,19,21,9.10
2021,12,01,19,22,9.10
2021,12,01,19,23,9.10
2021,12,01,19,24,9.10
2021,12,01,19,25,9.10
2021,12,01,19,26,9.00
2021,12,01,19,27,8.90
2021,12,01,19,28,8.80
2021,12,01,19,29,8.80
2021,12,01,19,30,8.70
2021,12,01,19,31,8.60
2021,12,01,19,32,8.60
2021,12,01,19,33,8.50
2021,12,01,19,34,8.50
2021,12,01,19,35,8.50
2021,12,01,19,36,8.40
2021,12,01,19,37,8.40
2021,12,01,19,38,8.40
2021,12,01,19,39,8.30
2021,12,01,19,40,8.30
2021,12,01,19,41,8.20
2021,12,01,19,42,8.20
2021,12,01,19,43,8.10
2021,12,01,19,44,8.10
2021,12,01,19,45,8.00
2021,12,01,19,46,8.00
2021,12,01,19,47,7.90
2021,12,01,19,48,7.90
2021,12,01,19,49,7.80
2021,12,01,19,50,7.80
2021,12,01,19,51,7.80
2021,12,01,19,52,7.80
2021,12,01,19,53,7.80
2021,12,01,19,54,7.80
2021,12,01,19,55,7.90
2021,12,01,19,56,8.00
2021,12,01,19,57,8.30
2021,12,01,19,58,8.40
2021,12,01,19,59,8.50
2021,12,01,20,00,8.50
2021,12,01,20,01,8.60
2021,12,01,20,02,8.60
2021,12,01,20,03,8.70
2021,12,01,20,04,8.70
2021,12,01,20,05,8.80
2021,12,01,20,06,8.90
2021,12,01,20,07,8.90
2021,12,01,20,08,8.90
2021,12,01,20,09,9.00
2021,12,01,20,10,9.00
2021,12,01,20,11,9.10
2021,12,01,20,12,9.10
2021,12,01,20,13,9.20
2021,12,01,20,14,9.20
2021,12,01,20,15,9.20
2021,12,01,20,16,9.20
2021,12,01,20,17,9.30
2021,12,01,20,18,9.30
2021,12,01,20,19,9.30
2021,12,01,20,20,9.30
2021,12,01,20,21,9.30
2021,12,01,20,22,9.30
2021,12,01,20,23,9.30
2021,12,01,20,24,9.30
2021,12,01,20,25,9.20
2021,12,01,20,26,9.20
2021,12,01,20,27,9.20
2021,12,01,20,28,9.20
2021,12,01,20,29,9.20
2021,12,01,20,30,9.20
2021,12,01,20,31,9.20
2021,12,01,20,32,9.20
2021,12,01,20,33,9.20
2021,12,01,20,34,9.20
2021,12,01,20,35,9.10
2021,12,01,20,36,9.10
2021,12,01,20,37,9.00
2021,12,01,20,38,9.00
2021,12,01,20,39,9.00
2021,12,01,20,40,8.90
2021,12,01,20,41,8.80
2021,12,01,20,42,8.80
2021,12,01,20,43,8.70
2021,12,01,20,44,8.70
2021,12,01,20,45,8.60
2021,12,01,20,46,8.60
2021,12,01,20,47,8.60
2021,12,01,20,48,8.60
2021,12,01,20,49,8.60
2021,12,01,20,50,8.60
2021,12,01,20,51,8.60
2021,12,01,20,52,8.50
2021,12,01,20,53,8.50
2021,12,01,20,54,8.50
2021,12,01,20,55,8.50
2021,12,01,20,56,8.40
2021,12,01,20,57,8.40
2021,12,01,20,58,8.30
2021,12,01,20,59,8.30
2021,12,01,21,00,8.30
2021,12,01,21,01,8.20
2021,12,01,21,02,8.20
2021,12,01,21,03,8.20
2021,12,01,21,04,8.20
2021,12,01,21,05,8.20
2021,12,01,21,06,8.20
2021,12,01,21,07,8.20
2021,12,01,21,08,8.20
2021,12,01,21,09,8.20
2021,12,01,21,10,8.30
2021,12,01,21,11,8.30
2021,12,01,21,12,8.30
2021,12,01,21,13,8.20